Albany, NY

11:01 AM EST on December 13, 2019 (GMT -0500)
Albany International

Weather History for KALB - August, 2019

Change the Weather History Date:

Monday, August 26, 2019

  Actual Average Record
Temperature  
Mean Temperature 65 °F 69 °F  
Max Temperature 78 °F 79 °F 98 °F (1948)
Min Temperature 52 °F 59 °F 40 °F (1942)
Degree Days  
Heating Degree Days 0 1  
Month to date heating degree days 1 9  
Since 1 June heating degree days 28 66  
Since 1 July heating degree days 1 14  
Cooling Degree Days 0 5  
Month to date cooling degree days 197 158  
Year to date cooling degree days 703 524  
Since 1 June cooling degree days 681 494  
Growing Degree Days 15 (Base 50)    
Moisture  
Dew Point 51 °F    
Average Humidity 63    
Maximum Humidity 89    
Minimum Humidity 36    
Precipitation  
Precipitation T in 0.10 in 2.32 in (1961)
Month to date precipitation 4.08 2.97  
Year to date precipitation 28.94 25.66  
Sea Level Pressure  
Sea Level Pressure 30.22 in    
Wind  
Wind Speed 3 mph (North)    
Max Wind Speed 9 mph    
Max Gust Speed 12 mph    
Visibility 10 miles    
Events      
T = Trace of Precipitation, MM = Missing Value Source: NWS Daily Summary

Daily Weather History Graph

Daily Weather History Graph

Search for Another Location

Airport or City:

Astronomy

Aug. 26, 2019 Rise Set
Actual Time 6:13 AM EDT 7:40 PM EDT
Civil Twilight 5:43 AM EDT 8:09 PM EDT
Nautical Twilight 5:07 AM EDT 8:45 PM EDT
Astronomical Twilight 4:30 AM EDT 9:22 PM EDT
Moon 1:31 AM EDT (8/26) 5:06 PM EDT (8/26)
Length of Visible Light 14h 25m
Length of Day
13h 26m
Waning Crescent, 19% of the Moon is Illuminated
Aug 26
Waning Crescent
Aug 30
New
Sep 5
First Quarter
Sep 14
Full
Sep 21
Last Quarter

Hourly Weather History & Observations

Time (EDT) Temp. Dew Point Humidity Pressure Visibility Wind Dir Wind Speed Gust Speed Precip Events Conditions
12:51 AM 55.0 °F 48.9 °F 80% 30.29 in 10.0 mi East 3.5 mph - N/A   Clear
1:51 AM 55.0 °F 48.0 °F 77% 30.28 in 10.0 mi Calm Calm - N/A   Clear
2:51 AM 53.1 °F 48.9 °F 86% 30.28 in 10.0 mi Calm Calm - N/A   Clear
3:51 AM 54.0 °F 50.0 °F 86% 30.28 in 10.0 mi North 4.6 mph - N/A   Clear
4:51 AM 53.1 °F 48.9 °F 86% 30.28 in 10.0 mi North 4.6 mph - N/A   Clear
5:51 AM 52.0 °F 48.0 °F 86% 30.28 in 10.0 mi North 3.5 mph - N/A   Clear
6:51 AM 52.0 °F 48.0 °F 86% 30.29 in 10.0 mi NE 3.5 mph - N/A   Clear
7:51 AM 55.9 °F 50.0 °F 80% 30.30 in 10.0 mi North 4.6 mph - N/A   Clear
8:51 AM 60.1 °F 52.0 °F 75% 30.29 in 10.0 mi NNW 4.6 mph - N/A   Clear
9:51 AM 64.9 °F 51.1 °F 61% 30.28 in 10.0 mi NNE 4.6 mph - N/A   Clear
10:51 AM 69.1 °F 50.0 °F 51% 30.26 in 10.0 mi North 5.8 mph - N/A   Partly Cloudy
11:51 AM 71.1 °F 48.9 °F 45% 30.25 in 10.0 mi NNE 5.8 mph - N/A   Clear
12:51 PM 75.0 °F 51.1 °F 43% 30.23 in 10.0 mi Variable 3.5 mph - N/A   Clear
1:51 PM 75.0 °F 48.9 °F 40% 30.21 in 10.0 mi Variable 3.5 mph - N/A   Partly Cloudy
2:51 PM 75.9 °F 48.9 °F 38% 30.19 in 10.0 mi Variable 4.6 mph - N/A   Partly Cloudy
3:51 PM 77.0 °F 48.0 °F 36% 30.17 in 10.0 mi Calm Calm - N/A   Partly Cloudy
4:51 PM 78.1 °F 51.1 °F 39% 30.16 in 10.0 mi Calm Calm - N/A   Partly Cloudy
5:51 PM 77.0 °F 52.0 °F 42% 30.15 in 10.0 mi NNE 3.5 mph - N/A   Partly Cloudy
6:51 PM 73.9 °F 52.0 °F 46% 30.14 in 10.0 mi WNW 4.6 mph - N/A   Partly Cloudy
7:51 PM 68.0 °F 53.1 °F 59% 30.14 in 10.0 mi Calm Calm - N/A   Partly Cloudy
8:51 PM 66.0 °F 54.0 °F 65% 30.15 in 10.0 mi Calm Calm - N/A   Scattered Clouds
9:51 PM 64.0 °F 54.0 °F 70% 30.15 in 10.0 mi Calm Calm - N/A   Scattered Clouds
10:51 PM 61.0 °F 53.1 °F 75% 30.15 in 10.0 mi Calm Calm - N/A   Scattered Clouds
11:51 PM 61.0 °F 53.1 °F 75% 30.14 in 10.0 mi Calm Calm - N/A   Mostly Cloudy